Weather at Campo di Volo Pasiano

Public forecast

Using degrees Celsius for public forecast. Weather courtesy of forecast.io.

Closest aviation weather report (METAR) to Campo di Volo Pasiano

Closest report is Aviano Air Base, 12.0 nm (22.2 km) N. Retrieved 2021/06/15 18:55 UTC (57 minutes ago):

LIPA 151855Z 22004KT 9999 FEW120 23/17 Q1016 RMK SCT SCT200 VIS MIN 9999 WIND THR05 /////KT WIND THR23 /////KT A3002 BLU

Closest aviation forecast (TAF) to Campo di Volo Pasiano

Forecast is more than 12 hours old.

Closest forecast is Aviano Air Base, 12.0 nm (22.2 km) N. Retrieved 2015/11/03 12:24 UTC (6 years ago):

TAF TAF LIPA 031100Z 0312/0324 VRB03KT CAVOK